QPF
0.06 0.08 0.06 0.05 0.04 0.03 0.04 0.06 0.10 0.11 0.09 0.05 0.04 0.03 0.03 0.04 0.04 0.04 0.05 0.05 0.04 0.04 0.03 0.03 0.03 0.03 0.03 0.02 0.02 0.02 0.02 0.02 0.01 0.01 0.01 0.01 0.01 0.01
0.07 0.08 0.07 0.05 0.05 0.03 0.03 0.04 0.07 0.10 0.10 0.04 0.03 0.02 0.03 0.03 0.04 0.04 0.05 0.05 0.04 0.04 0.03 0.02 0.02 0.02 0.02 0.02 0.02 0.02 0.02 0.02 0.02 0.02 0.02 0.01 0.01 0.01
0.05 0.05 0.06 0.05 0.05 0.05 0.04 0.04 0.05 0.08 0.09 0.05 0.03 0.02 0.03 0.04 0.04 0.05 0.04 0.03 0.03 0.04 0.03 0.02 0.02 0.02 0.02 0.03 0.03 0.03 0.02 0.02 0.02 0.02 0.02 0.02 0.01 0.01
0.08 0.08 0.08 0.06 0.06 0.05 0.05 0.06 0.06 0.08 0.09 0.08 0.05 0.04 0.04 0.05 0.05 0.04 0.03 0.03 0.03 0.04 0.04 0.04 0.03 0.03 0.04 0.04 0.05 0.05 0.04 0.04 0.03 0.02 0.02 0.02 0.01 0.01
0.10 0.10 0.09 0.08 0.07 0.06 0.05 0.06 0.05 0.05 0.06 0.07 0.06 0.06 0.06 0.06 0.06 0.06 0.06 0.06 0.05 0.05 0.05 0.04 0.04 0.03 0.03 0.03 0.03 0.03 0.03 0.02 0.02 0.01 0.01 0.01 0.01 0.00
0.10 0.10 0.10 0.09 0.09 0.09 0.08 0.07 0.06 0.05 0.06 0.07 0.07 0.09 0.10 0.09 0.08 0.07 0.07 0.06 0.06 0.04 0.04 0.03 0.03 0.02 0.03 0.03 0.03 0.03 0.02 0.01 0.01 0.00 0.00 0.00 0.00 0.00
0.07 0.07 0.08 0.09 0.10 0.10 0.09 0.09 0.08 0.08 0.08 0.08 0.09 0.09 0.09 0.08 0.07 0.06 0.06 0.06 0.06 0.05 0.04 0.04 0.04 0.05 0.05 0.04 0.03 0.02 0.01 0.01 0.00 0.00 0.00 0.00 0.01 0.01
0.07 0.09 0.11 0.12 0.13 0.15 0.17 0.16 0.14 0.12 0.13 0.13 0.11 0.10 0.09 0.08 0.07 0.08 0.08 0.08 0.08 0.08 0.07 0.07 0.07 0.07 0.06 0.04 0.03 0.02 0.02 0.01 0.01 0.01 0.01 0.01 0.01 0.01
0.08 0.11 0.14 0.17 0.17 0.15 0.16 0.17 0.16 0.13 0.10 0.08 0.08 0.07 0.07 0.07 0.08 0.09 0.10 0.09 0.08 0.07 0.07 0.07 0.06 0.06 0.05 0.04 0.05 0.04 0.04 0.04 0.04 0.04 0.03 0.02 0.01 0.01
0.08 0.08 0.09 0.10 0.10 0.10 0.09 0.08 0.08 0.08 0.07 0.06 0.05 0.04 0.04 0.05 0.05 0.06 0.07 0.07 0.07 0.07 0.07 0.07 0.06 0.06 0.07 0.07 0.07 0.06 0.05 0.04 0.04 0.03 0.02 0.01 0.01 0.01
0.05 0.05 0.05 0.04 0.06 0.06 0.05 0.04 0.04 0.04 0.05 0.05 0.04 0.03 0.03 0.03 0.03 0.04 0.04 0.05 0.05 0.05 0.05 0.06 0.07 0.07 0.07 0.06 0.04 0.05 0.05 0.04 0.04 0.03 0.02 0.02 0.01 0.01
0.05 0.05 0.05 0.04 0.04 0.03 0.02 0.03 0.03 0.03 0.03 0.03 0.02 0.02 0.02 0.02 0.03 0.02 0.03 0.03 0.03 0.03 0.03 0.03 0.04 0.03 0.03 0.02 0.02 0.02 0.02 0.03 0.03 0.02 0.02 0.01 0.01 0.01
0.04 0.03 0.03 0.03 0.03 0.03 0.03 0.03 0.03 0.03 0.02 0.02 0.02 0.02 0.02 0.02 0.02 0.02 0.02 0.02 0.02 0.02 0.02 0.02 0.03 0.03 0.02 0.02 0.02 0.02 0.01 0.01 0.01 0.01 0.01 0.01 0.01 0.01
0.03 0.03 0.03 0.04 0.03 0.03 0.03 0.03 0.03 0.03 0.02 0.03 0.03 0.02 0.02 0.02 0.02 0.01 0.02 0.02 0.02 0.02 0.02 0.02 0.02 0.01 0.01 0.01 0.01 0.01 0.01 0.01 0.01 0.01 0.01 0.01 0.01 0.01
0.03 0.04 0.03 0.03 0.03 0.02 0.02 0.02 0.02 0.02 0.02 0.03 0.03 0.03 0.02 0.01 0.01 0.01 0.01 0.01 0.01 0.01 0.01 0.01 0.01 0.01 0.01 0.01 0.02 0.01 0.01 0.01 0.01 0.01 0.01 0.01 0.00 0.00
0.03 0.03 0.03 0.03 0.03 0.02 0.02 0.02 0.02 0.02 0.03 0.04 0.05 0.04 0.03 0.02 0.02 0.02 0.02 0.02 0.01 0.01 0.01 0.01 0.01 0.01 0.01 0.01 0.01 0.01 0.01 0.01 0.01 0.00 0.00 0.00 0.00 0.00
0.02 0.02 0.02 0.03 0.04 0.03 0.03 0.03 0.03 0.03 0.04 0.04 0.04 0.04 0.04 0.04 0.04 0.04 0.03 0.02 0.01 0.01 0.01 0.00 0.00 0.00 0.00 0.00 0.00 0.00 0.00 0.00 0.00 0.00 0.00 0.00 0.00 0.00
0.02 0.01 0.02 0.03 0.04 0.05 0.05 0.04 0.03 0.02 0.02 0.02 0.02 0.03 0.03 0.04 0.03 0.03 0.02 0.02 0.01 0.01 0.00 0.00 0.00 0.00 0.00 0.00 0.00 0.00 0.00 0.00 0.00 0.00 0.00 0.00 0.00 0.00
0.02 0.02 0.02 0.02 0.03 0.04 0.04 0.03 0.03 0.02 0.02 0.02 0.02 0.02 0.03 0.03 0.02 0.02 0.01 0.01 0.00 0.00 0.00 0.00 0.00 0.00 0.00 0.00 0.00 0.00 0.00 0.00 0.00 0.00 0.00 0.00 0.00 0.00
0.02 0.02 0.02 0.02 0.02 0.02 0.03 0.03 0.03 0.02 0.02 0.01 0.01 0.01 0.01 0.01 0.01 0.01 0.01 0.00 0.00 0.00 0.00 0.00 0.00 0.00 0.00 0.00 0.00 0.00 0.00 0.00 0.00 0.00 0.00 0.00 0.00 0.00
0.03 0.02 0.03 0.03 0.02 0.03 0.03 0.03 0.03 0.02 0.02 0.02 0.02 0.02 0.02 0.02 0.01 0.01 0.01 0.00 0.00 0.00 0.00 0.00 0.00 0.00 0.00 0.00 0.00 0.00 0.00 0.00 0.00 0.00 0.00 0.00 0.00 0.00
0.04 0.03 0.03 0.03 0.04 0.04 0.04 0.04 0.04 0.04 0.03 0.03 0.03 0.03 0.02 0.02 0.01 0.01 0.01 0.01 0.01 0.01 0.00 0.00 0.00 0.00 0.00 0.00 0.00 0.01 0.00 0.00 0.00 0.00 0.00 0.00 0.00 0.00
0.03 0.02 0.02 0.03 0.03 0.04 0.04 0.04 0.04 0.03 0.03 0.03 0.02 0.02 0.02 0.01 0.01 0.01 0.01 0.01 0.01 0.01 0.00 0.00 0.00 0.00 0.00 0.00 0.00 0.00 0.00 0.00 0.00 0.00 0.00 0.00 0.00 0.00
MSLP
1018.97 1019.09 1019.24 1019.41 1019.59 1019.79 1020.00 1020.22 1020.45 1020.69 1020.94 1021.21 1021.50 1021.80 1022.11 1022.42 1022.72 1023.01 1023.30 1023.57 1023.85 1024.14 1024.44 1024.76 1025.09 1025.42 1025.75 1026.04 1026.29 1026.49 1026.63 1026.72 1026.75 1026.75 1026.73 1026.69 1026.64 1026.57
1018.59 1018.73 1018.91 1019.11 1019.34 1019.59 1019.86 1020.15 1020.46 1020.78 1021.12 1021.49 1021.87 1022.27 1022.67 1023.07 1023.45 1023.81 1024.14 1024.44 1024.73 1025.02 1025.30 1025.58 1025.88 1026.17 1026.46 1026.72 1026.95 1027.13 1027.25 1027.33 1027.35 1027.33 1027.29 1027.22 1027.14 1027.04
1018.17 1018.33 1018.53 1018.76 1019.03 1019.33 1019.65 1020.00 1020.37 1020.77 1021.20 1021.65 1022.14 1022.64 1023.15 1023.65 1024.12 1024.56 1024.94 1025.29 1025.60 1025.87 1026.13 1026.38 1026.63 1026.88 1027.12 1027.34 1027.53 1027.69 1027.79 1027.85 1027.86 1027.82 1027.76 1027.67 1027.55 1027.43
1017.70 1017.87 1018.09 1018.35 1018.64 1018.97 1019.33 1019.73 1020.15 1020.61 1021.12 1021.66 1022.23 1022.84 1023.45 1024.05 1024.61 1025.13 1025.59 1025.98 1026.31 1026.59 1026.84 1027.06 1027.27 1027.47 1027.66 1027.85 1028.01 1028.13 1028.22 1028.26 1028.26 1028.21 1028.13 1028.02 1027.89 1027.74
1017.16 1017.35 1017.58 1017.86 1018.18 1018.53 1018.92 1019.34 1019.80 1020.31 1020.86 1021.46 1022.12 1022.80 1023.50 1024.19 1024.85 1025.45 1025.97 1026.42 1026.79 1027.08 1027.32 1027.53 1027.71 1027.88 1028.04 1028.19 1028.33 1028.44 1028.52 1028.56 1028.55 1028.50 1028.41 1028.29 1028.15 1027.99
1016.58 1016.78 1017.03 1017.32 1017.66 1018.03 1018.43 1018.86 1019.34 1019.87 1020.45 1021.09 1021.80 1022.54 1023.31 1024.07 1024.81 1025.48 1026.07 1026.57 1026.97 1027.29 1027.55 1027.75 1027.92 1028.08 1028.23 1028.37 1028.50 1028.61 1028.69 1028.73 1028.74 1028.70 1028.62 1028.51 1028.37 1028.21
1016.01 1016.22 1016.48 1016.79 1017.14 1017.52 1017.92 1018.36 1018.84 1019.37 1019.96 1020.61 1021.34 1022.12 1022.92 1023.74 1024.52 1025.25 1025.89 1026.44 1026.88 1027.23 1027.51 1027.72 1027.90 1028.06 1028.22 1028.37 1028.51 1028.64 1028.74 1028.81 1028.84 1028.82 1028.76 1028.67 1028.54 1028.39
1015.53 1015.74 1016.02 1016.34 1016.69 1017.08 1017.48 1017.91 1018.38 1018.90 1019.48 1020.12 1020.84 1021.63 1022.45 1023.28 1024.09 1024.84 1025.52 1026.09 1026.57 1026.95 1027.25 1027.49 1027.69 1027.87 1028.04 1028.22 1028.39 1028.54 1028.68 1028.79 1028.85 1028.87 1028.84 1028.76 1028.66 1028.53
1015.21 1015.43 1015.71 1016.04 1016.41 1016.79 1017.20 1017.61 1018.06 1018.56 1019.11 1019.73 1020.43 1021.19 1021.99 1022.81 1023.61 1024.37 1025.05 1025.64 1026.13 1026.53 1026.85 1027.11 1027.34 1027.55 1027.75 1027.96 1028.16 1028.36 1028.53 1028.67 1028.77 1028.82 1028.82 1028.78 1028.69 1028.58
1015.11 1015.35 1015.65 1015.99 1016.36 1016.74 1017.13 1017.54 1017.97 1018.43 1018.95 1019.53 1020.18 1020.90 1021.66 1022.44 1023.21 1023.94 1024.60 1025.18 1025.66 1026.06 1026.39 1026.67 1026.92 1027.15 1027.38 1027.62 1027.86 1028.08 1028.30 1028.47 1028.60 1028.68 1028.70 1028.67 1028.60 1028.49
1015.27 1015.52 1015.83 1016.18 1016.55 1016.93 1017.32 1017.70 1018.11 1018.54 1019.02 1019.56 1020.16 1020.82 1021.52 1022.24 1022.95 1023.63 1024.24 1024.79 1025.24 1025.63 1025.95 1026.23 1026.49 1026.74 1026.99 1027.24 1027.50 1027.76 1027.98 1028.18 1028.32 1028.41 1028.44 1028.42 1028.35 1028.25
1015.65 1015.91 1016.23 1016.58 1016.96 1017.33 1017.70 1018.08 1018.46 1018.86 1019.30 1019.79 1020.33 1020.93 1021.56 1022.21 1022.85 1023.45 1024.01 1024.50 1024.92 1025.27 1025.58 1025.85 1026.10 1026.35 1026.60 1026.87 1027.13 1027.38 1027.61 1027.80 1027.94 1028.03 1028.05 1028.03 1027.96 1027.86
1016.17 1016.45 1016.77 1017.12 1017.49 1017.85 1018.21 1018.57 1018.93 1019.30 1019.71 1020.15 1020.64 1021.17 1021.73 1022.30 1022.86 1023.39 1023.88 1024.31 1024.68 1025.00 1025.28 1025.53 1025.77 1026.01 1026.25 1026.50 1026.75 1026.99 1027.20 1027.36 1027.48 1027.55 1027.56 1027.51 1027.44 1027.33
1016.73 1017.01 1017.34 1017.68 1018.04 1018.39 1018.73 1019.07 1019.41 1019.75 1020.12 1020.53 1020.96 1021.43 1021.93 1022.43 1022.92 1023.38 1023.80 1024.18 1024.50 1024.78 1025.03 1025.26 1025.48 1025.71 1025.93 1026.16 1026.38 1026.59 1026.76 1026.89 1026.97 1027.01 1026.99 1026.93 1026.84 1026.74
1017.21 1017.50 1017.81 1018.15 1018.49 1018.82 1019.15 1019.47 1019.78 1020.11 1020.45 1020.82 1021.21 1021.63 1022.06 1022.50 1022.93 1023.34 1023.71 1024.04 1024.33 1024.59 1024.82 1025.04 1025.24 1025.45 1025.65 1025.85 1026.04 1026.20 1026.33 1026.42 1026.46 1026.46 1026.41 1026.34 1026.25 1026.15
1017.53 1017.82 1018.12 1018.45 1018.77 1019.09 1019.39 1019.69 1019.99 1020.30 1020.61 1020.95 1021.31 1021.68 1022.07 1022.46 1022.84 1023.21 1023.55 1023.86 1024.13 1024.38 1024.61 1024.83 1025.03 1025.23 1025.41 1025.59 1025.74 1025.86 1025.95 1025.99 1025.99 1025.96 1025.89 1025.80 1025.72 1025.64
1017.66 1017.95 1018.24 1018.55 1018.85 1019.15 1019.45 1019.73 1020.02 1020.31 1020.60 1020.91 1021.24 1021.58 1021.93 1022.29 1022.64 1022.98 1023.31 1023.61 1023.89 1024.15 1024.39 1024.62 1024.83 1025.02 1025.20 1025.36 1025.48 1025.57 1025.62 1025.62 1025.59 1025.53 1025.45 1025.36 1025.29 1025.24
1017.64 1017.91 1018.19 1018.48 1018.78 1019.07 1019.35 1019.63 1019.90 1020.18 1020.45 1020.74 1021.04 1021.35 1021.68 1022.01 1022.35 1022.68 1023.00 1023.31 1023.61 1023.89 1024.16 1024.40 1024.63 1024.84 1025.02 1025.16 1025.26 1025.32 1025.34 1025.32 1025.26 1025.19 1025.11 1025.03 1024.97 1024.94
1017.52 1017.78 1018.06 1018.34 1018.63 1018.92 1019.20 1019.48 1019.74 1020.00 1020.26 1020.53 1020.80 1021.09 1021.39 1021.70 1022.02 1022.34 1022.67 1022.99 1023.31 1023.62 1023.92 1024.19 1024.44 1024.66 1024.84 1024.97 1025.06 1025.10 1025.10 1025.06 1024.99 1024.91 1024.83 1024.77 1024.73 1024.72
1017.40 1017.65 1017.92 1018.21 1018.51 1018.80 1019.09 1019.36 1019.62 1019.87 1020.12 1020.36 1020.61 1020.86 1021.13 1021.42 1021.72 1022.04 1022.37 1022.70 1023.04 1023.37 1023.68 1023.98 1024.24 1024.47 1024.65 1024.77 1024.85 1024.88 1024.86 1024.81 1024.73 1024.65 1024.58 1024.52 1024.50 1024.50
1017.34 1017.59 1017.87 1018.17 1018.47 1018.77 1019.07 1019.35 1019.60 1019.85 1020.08 1020.29 1020.51 1020.74 1020.98 1021.23 1021.51 1021.81 1022.13 1022.46 1022.80 1023.14 1023.46 1023.76 1024.03 1024.25 1024.42 1024.54 1024.60 1024.61 1024.57 1024.51 1024.44 1024.36 1024.29 1024.24 1024.22 1024.22
1017.38 1017.63 1017.92 1018.22 1018.54 1018.86 1019.16 1019.45 1019.71 1019.94 1020.15 1020.34 1020.53 1020.72 1020.92 1021.15 1021.39 1021.66 1021.96 1022.28 1022.60 1022.93 1023.24 1023.53 1023.78 1023.99 1024.14 1024.23 1024.27 1024.26 1024.22 1024.15 1024.07 1023.99 1023.92 1023.87 1023.85 1023.84
1017.49 1017.75 1018.04 1018.36 1018.69 1019.02 1019.33 1019.62 1019.88 1020.10 1020.29 1020.46 1020.62 1020.77 1020.94 1021.12 1021.33 1021.57 1021.83 1022.12 1022.41 1022.72 1023.00 1023.26 1023.48 1023.66 1023.78 1023.84 1023.86 1023.84 1023.78 1023.70 1023.62 1023.54 1023.47 1023.42 1023.38 1023.36
Thickness
5740 5738 5737 5739 5738 5738 5736 5732 5724 5716 5714 5714 5713 5711 5709 5706 5702 5699 5696 5692 5689 5686 5683 5679 5675 5672 5669 5666 5662 5659 5656 5653 5650 5647 5644 5642 5640 5638
5737 5736 5734 5736 5736 5735 5734 5732 5728 5721 5713 5712 5708 5706 5702 5700 5694 5691 5688 5684 5680 5677 5674 5670 5666 5663 5660 5656 5653 5649 5646 5643 5640 5637 5634 5631 5629 5626
5735 5733 5731 5730 5730 5730 5729 5727 5724 5720 5710 5705 5702 5698 5694 5691 5686 5683 5680 5676 5671 5668 5665 5661 5657 5653 5650 5646 5643 5639 5635 5632 5629 5626 5623 5620 5617 5615
5732 5730 5728 5727 5725 5724 5723 5722 5718 5715 5708 5699 5693 5689 5685 5682 5678 5675 5672 5669 5664 5658 5655 5652 5647 5643 5640 5636 5632 5629 5625 5621 5618 5615 5612 5609 5606 5603
5729 5727 5725 5723 5720 5719 5717 5715 5713 5710 5705 5697 5689 5684 5678 5674 5670 5666 5662 5658 5655 5649 5645 5641 5637 5633 5629 5626 5622 5618 5615 5611 5608 5604 5601 5598 5595 5592
5725 5723 5722 5720 5717 5715 5712 5708 5706 5702 5697 5692 5685 5678 5671 5666 5662 5658 5652 5648 5645 5641 5636 5631 5627 5623 5619 5616 5612 5608 5604 5601 5597 5593 5590 5587 5584 5581
5719 5718 5716 5714 5711 5709 5707 5703 5699 5695 5690 5685 5679 5672 5665 5660 5656 5652 5646 5640 5635 5632 5628 5623 5619 5615 5611 5606 5602 5597 5593 5590 5586 5582 5579 5576 5573 5569
5712 5711 5709 5706 5703 5699 5696 5694 5691 5688 5684 5678 5673 5667 5660 5656 5651 5646 5640 5635 5629 5624 5621 5616 5612 5608 5603 5599 5592 5588 5583 5580 5576 5572 5569 5565 5562 5558
5706 5704 5703 5699 5696 5692 5687 5683 5680 5677 5675 5672 5667 5662 5656 5650 5645 5639 5634 5630 5624 5617 5612 5608 5603 5599 5594 5588 5583 5578 5573 5569 5566 5562 5559 5555 5552 5548
5698 5696 5694 5690 5687 5684 5680 5675 5671 5667 5664 5661 5659 5655 5650 5643 5638 5633 5627 5619 5613 5608 5605 5601 5596 5591 5586 5580 5574 5568 5564 5560 5556 5553 5549 5545 5542 5538
5689 5686 5684 5680 5676 5673 5671 5665 5661 5655 5651 5649 5646 5642 5637 5633 5628 5624 5618 5613 5607 5601 5596 5594 5589 5583 5578 5573 5567 5561 5556 5552 5548 5544 5540 5536 5533 5531
5680 5676 5672 5670 5666 5663 5662 5658 5653 5647 5643 5638 5633 5629 5625 5621 5617 5615 5611 5608 5603 5596 5589 5585 5581 5576 5571 5566 5561 5555 5550 5545 5541 5536 5532 5528 5525 5523
5673 5669 5664 5658 5655 5653 5652 5649 5645 5640 5634 5630 5624 5620 5615 5611 5606 5603 5601 5599 5595 5590 5582 5577 5573 5569 5565 5560 5554 5549 5544 5540 5536 5531 5526 5521 5517 5514
5663 5659 5653 5647 5644 5642 5639 5635 5631 5628 5625 5620 5615 5610 5606 5601 5596 5592 5588 5585 5581 5577 5571 5567 5565 5560 5557 5553 5549 5543 5538 5533 5529 5525 5521 5515 5511 5507
5651 5645 5640 5635 5632 5630 5626 5623 5621 5619 5616 5611 5606 5601 5596 5591 5586 5581 5576 5572 5568 5564 5560 5556 5553 5550 5548 5546 5542 5536 5532 5527 5522 5518 5514 5511 5507 5504
5638 5631 5627 5624 5622 5618 5614 5612 5612 5610 5607 5602 5597 5591 5586 5581 5577 5573 5570 5565 5561 5556 5550 5545 5541 5538 5538 5534 5532 5528 5524 5520 5515 5511 5506 5504 5501 5498
5629 5624 5620 5616 5613 5610 5607 5604 5601 5598 5595 5592 5587 5582 5578 5574 5569 5564 5560 5557 5554 5549 5543 5537 5533 5529 5525 5524 5522 5520 5516 5513 5509 5504 5498 5499 5496 5493
5620 5617 5613 5610 5606 5603 5600 5596 5593 5590 5586 5582 5578 5574 5570 5566 5561 5556 5552 5549 5545 5541 5536 5531 5527 5523 5519 5516 5510 5510 5509 5506 5502 5497 5494 5493 5492 5488
5611 5609 5605 5602 5599 5596 5592 5589 5585 5581 5576 5572 5568 5565 5561 5557 5552 5547 5543 5540 5536 5532 5529 5524 5521 5518 5516 5515 5507 5500 5499 5497 5494 5492 5490 5488 5486 5483
5603 5601 5597 5593 5590 5587 5584 5580 5576 5570 5566 5563 5559 5555 5551 5547 5543 5539 5536 5531 5528 5524 5520 5517 5513 5510 5508 5506 5503 5497 5490 5489 5488 5486 5484 5483 5481 5478
5594 5592 5589 5586 5582 5578 5574 5569 5566 5562 5558 5554 5550 5545 5542 5538 5535 5531 5527 5519 5517 5516 5513 5510 5504 5497 5496 5494 5494 5493 5490 5483 5479 5476 5476 5476 5476 5476
5585 5583 5580 5577 5573 5569 5564 5560 5557 5553 5549 5545 5542 5538 5534 5530 5526 5522 5519 5515 5511 5509 5506 5502 5496 5492 5490 5489 5489 5487 5485 5481 5476 5473 5470 5468 5467 5467
5576 5574 5571 5567 5564 5559 5556 5552 5549 5545 5541 5538 5534 5530 5526 5522 5518 5515 5511 5508 5504 5501 5498 5495 5492 5488 5486 5485 5483 5483 5480 5478 5477 5475 5472 5468 5463 5461